Weather History for KMMT - October, 2013

Change the Weather History Date:

Friday, October 4, 2013

  Actual Average Record
Temperature  
Mean Temperature 72 °F -  
Max Temperature 86 °F 76 °F 89 °F (2005)
Min Temperature 59 °F 56 °F 44 °F (2003)
Cooling Degree Days 8    
Growing Degree Days 22 (Base 50)    
Moisture  
Dew Point 62 °F    
Average Humidity 92    
Maximum Humidity 100    
Minimum Humidity 46    
Precipitation  
Precipitation 0.00 in - - ()
Sea Level Pressure  
Sea Level Pressure 30.13 in    
Wind  
Wind Speed 1 mph (NW)    
Max Wind Speed 4 mph    
Max Gust Speed -    
Visibility 4 miles    
Events Fog    
Averages and records for this station are not official NWS values.
T = Trace of Precipitation, MM = Missing Value Source: NWS Daily Summary

Daily Weather History Graph

Daily Weather History Graph

Search for Another Location

Airport or City:

Trip Planner

Search our weather history database for the weather conditions in past years. The results will help you decide how hot, cold, wet, or windy it might be!

Date:

Astronomy

Oct. 04, 2013 Rise Set
Actual Time 7:20 AM EDT 7:03 PM EDT
Civil Twilight 6:55 AM EDT 7:28 PM EDT
Nautical Twilight 6:26 AM EDT 7:56 PM EDT
Astronomical Twilight 5:57 AM EDT 8:25 PM EDT
Moon 6:53 AM EDT (10/4) 6:46 PM EDT (10/4)
Length of Visible Light 12h 32m
Length of Day
11h 43m
Waning Crescent, 0% of the Moon is Illuminated
Oct 4
Waning Crescent
Oct 4
New
Oct 11
First Quarter
Oct 18
Full
Oct 26
Last Quarter

Hourly Weather History & Observations

Time (EDT) Temp. Heat Index Dew Point Humidity Pressure Visibility Wind Dir Wind Speed Gust Speed Precip Events Conditions
12:48 AM 62.6 °F - 62.6 °F 100% 30.12 in 1.5 mi Calm Calm - N/A   Clear
12:58 AM 64.4 °F - 64.4 °F 100% 30.12 in 3.0 mi Calm Calm - N/A   Clear
1:28 AM 62.6 °F - 62.6 °F 100% 30.12 in 1.5 mi NW 1.2 mph - N/A   Clear
1:38 AM 62.6 °F - 62.6 °F 100% 30.12 in 4.0 mi North 3.5 mph - N/A   Clear
1:48 AM 60.8 °F - 60.8 °F 100% 30.12 in 1.8 mi North 1.2 mph - N/A   Clear
1:58 AM 62.6 °F - 62.6 °F 100% 30.12 in 1.0 mi Calm Calm - N/A   Clear
2:08 AM 62.6 °F - 62.6 °F 100% 30.12 in 6.0 mi Calm Calm - N/A   Clear
2:38 AM 62.6 °F - 62.6 °F 100% 30.12 in 0.8 mi Calm Calm - N/A   Clear
2:58 AM 62.4 °F - 62.4 °F 100% 30.12 in 8.0 mi Calm Calm - N/A   Clear
3:08 AM 62.6 °F - 62.6 °F 100% 30.12 in 2.5 mi Calm Calm - N/A   Clear
3:18 AM 60.8 °F - 60.8 °F 100% 30.11 in 0.5 mi Calm Calm - N/A Fog Fog
3:28 AM 60.8 °F - 60.8 °F 100% 30.11 in 0.8 mi Calm Calm - N/A   Clear
3:38 AM 60.8 °F - 60.8 °F 100% 30.11 in 0.5 mi Calm Calm - N/A Fog Fog
3:48 AM 60.8 °F - 60.8 °F 100% 30.11 in 1.0 mi Calm Calm - N/A   Clear
3:58 AM 61.9 °F - 61.9 °F 100% 30.12 in 0.8 mi Calm Calm - N/A   Clear
4:08 AM 60.8 °F - 60.8 °F 100% 30.11 in 0.8 mi NNW 2.3 mph - N/A   Clear
4:18 AM 60.8 °F - 60.8 °F 100% 30.11 in 0.5 mi NW 2.3 mph - N/A Fog Fog
4:28 AM 60.8 °F - 60.8 °F 100% 30.11 in 10.0 mi NW 2.3 mph - N/A   Clear
4:58 AM 60.8 °F - 60.8 °F 100% 30.12 in 2.5 mi NNW 1.2 mph - N/A   Clear
5:08 AM 59.0 °F - 59.0 °F 100% 30.11 in 0.2 mi Calm Calm - N/A Fog Fog
5:18 AM 59.0 °F - 59.0 °F 100% 30.11 in 1.0 mi Calm Calm - N/A   Clear
5:28 AM 60.8 °F - 60.8 °F 100% 30.11 in 0.5 mi Calm Calm - N/A Fog Fog
5:38 AM 60.8 °F - 60.8 °F 100% 30.12 in 1.8 mi Calm Calm - N/A   Clear
5:48 AM 60.8 °F - 60.8 °F 100% 30.12 in 1.0 mi NW 1.2 mph - N/A   Clear
5:58 AM 60.8 °F - 60.8 °F 100% 30.13 in 3.0 mi WNW 1.2 mph - N/A   Clear
6:18 AM 59.0 °F - 59.0 °F 100% 30.12 in 2.0 mi NNW 1.2 mph - N/A   Clear
6:28 AM 59.0 °F - 59.0 °F 100% 30.13 in 0.5 mi Calm Calm - N/A Fog Fog
6:38 AM 59.0 °F - 59.0 °F 100% 30.13 in 0.5 mi Calm Calm - N/A Fog Fog
6:48 AM 59.0 °F - 59.0 °F 100% 30.13 in 0.8 mi NNW 1.2 mph - N/A   Clear
6:58 AM 59.0 °F - 59.0 °F 100% 30.14 in 0.5 mi NNW 1.2 mph - N/A Fog Fog
7:08 AM 59.0 °F - 59.0 °F 100% 30.14 in 1.0 mi Calm Calm - N/A   Clear
7:18 AM 59.0 °F - 59.0 °F 100% 30.14 in 0.2 mi Calm Calm - N/A Fog Fog
7:38 AM 59.0 °F - 59.0 °F 100% 30.14 in 0.2 mi Calm Calm - N/A Fog Fog
7:48 AM 59.0 °F - 59.0 °F 100% 30.15 in 1.8 mi SSE 2.3 mph - N/A   Mostly Cloudy
7:58 AM 59.0 °F - 59.0 °F 100% 30.16 in 0.5 mi SE 2.3 mph - N/A Fog Fog
8:08 AM 60.8 °F - 60.8 °F 100% 30.15 in 0.2 mi Calm Calm - N/A Fog Fog
8:58 AM 64.0 °F - 64.0 °F 100% 30.17 in 0.2 mi Calm Calm - N/A Fog Fog
9:08 AM 64.4 °F - 64.4 °F 100% 30.16 in 0.5 mi Calm Calm - N/A Fog Fog
9:18 AM 66.2 °F - 66.2 °F 100% 30.16 in 7.0 mi Calm Calm - N/A   Mostly Cloudy
9:28 AM 68.0 °F - 68.0 °F 100% 30.16 in 9.0 mi Calm Calm - N/A   Partly Cloudy
9:58 AM 71.6 °F - 71.6 °F 100% 30.18 in 10.0 mi Calm Calm - N/A   Light Drizzle
10:58 AM 78.4 °F - 68.0 °F 70% 30.18 in 10.0 mi WNW 3.5 mph - 0.00 in   Clear
11:58 AM 81.0 °F 83.2 °F 66.6 °F 61% 30.17 in 10.0 mi Variable 2.3 mph - N/A   Clear
12:58 PM 83.1 °F 84.6 °F 64.4 °F 53% 30.16 in 10.0 mi Variable 2.3 mph - N/A   Clear
1:58 PM 83.1 °F 84.0 °F 62.8 °F 50% 30.12 in 10.0 mi Variable 1.2 mph - N/A   Clear
2:58 PM 82.6 °F 83.6 °F 62.8 °F 51% 30.11 in 10.0 mi Calm Calm - N/A   Overcast
3:58 PM 86.4 °F 87.3 °F 63.5 °F 46% 30.09 in 10.0 mi Variable 1.2 mph - N/A   Clear
4:58 PM 85.5 °F 86.1 °F 62.2 °F 46% 30.09 in 10.0 mi Calm Calm - N/A   Clear
5:58 PM 84.4 °F 85.4 °F 63.3 °F 49% 30.09 in 10.0 mi SSW 2.3 mph - N/A   Clear
6:58 PM 77.0 °F - 68.2 °F 74% 30.09 in 10.0 mi SSE 1.2 mph - N/A   Clear
7:58 PM 71.8 °F - 66.6 °F 84% 30.10 in 10.0 mi Calm Calm - N/A   Clear
8:58 PM 68.7 °F - 66.2 °F 92% 30.12 in 10.0 mi Calm Calm - N/A   Clear
9:58 PM 67.1 °F - 66.0 °F 96% 30.13 in 10.0 mi Calm Calm - N/A   Clear
10:58 PM 65.8 °F - 65.3 °F 98% 30.12 in 10.0 mi Calm Calm - N/A   Clear
11:58 PM 64.2 °F - 63.9 °F 99% 30.12 in 7.0 mi NNW 1.2 mph - N/A   Clear